KUIPER-00405

导读

KUIPER-00405(NORAD编号68923)是美国亚马逊“柯伊伯计划”(Project Kuiper)星座中的试验技术卫星,属于亚马逊第一代近地轨道互联网卫星组网计划的组成部分,旨在构建覆盖全球的低轨卫星互联网系统,打破SpaceX“星链”在该领域的垄断格局。该卫星运行在近地轨道,为柯伊伯星座的大规模部署提供技术验证,目前处于在轨运行状态,共同推动全球卫星互联网产业的竞争与发展。

基本信息
目录编号:
68923
目录名称:
KUIPER-00405
国际标识:
2026-098E
轨道中心:
EARTH
卫星名称:
KUIPER-00405
卫星全名:
KUIPER-00405
卫星状态:
在轨 (已飞行128 天)
发射日期:
2026-04-30 UTC
国别 :
美国 (US)
星等 :
--
轨道信息
数据来源 国际轨道数据
星历时间: 2026-09-04T20:46:20+0800
22小时前
查看轨道信息
半长轴: 7007.688km
偏心率: 0.0001466
轨道倾角: 51.901°
近地点辐角 151.650°
升交点赤经 69.805°
平近点角 208.455°
近地点: 628.523km
远地点: 630.579km
周期: 97.302分钟
每日圈数: 14.799283
详细信息
使用方式:
暂无
2D轨道图
3D轨道图
轨道高度分析图
轨道倾角分析图
轨道综合分析图
查看轨道综合分析图
交会数据列表
事件ID 空间交会对象 最接近时刻(TCA) 交会距离 交会风险概率(CRP) 交会风险指数(CRI) 操作
CDM_260907-194306-892306-960821
2026-09-07T
19:43:12+0000
0.352 km
远距离
2.193443E-4 高风险 0.82
CDM_260906-093501-921106-892325
2026-09-06T
09:35:10+0000
2.086 km
极远距离
2.356892E-6 低风险 0.42
CDM_260907-180506-892306-960821
2026-09-07T
18:05:58+0000
1.745 km
极远距离
1.899225E-6 低风险 0.41
CDM_260907-223003-544006-892321
2026-09-07T
22:30:48+0000
1.694 km
极远距离
1.690563E-6 低风险 0.4